Погода Верещагино

Погода Верещагино : погода сейчас, прогноз погоды и архив. Всё, что Вы хотите узнать о погоде Верещагино!

Поиск расширенной информации на нашем сайте:

Другие новости

Новости СМИ2

Главная страница сайта

Новости сайта

02.10.2013

Напоминаем, что на нашем новом сайте вы можете получить высокодетализированные прогнозы погоды по пунктам России, СНГ и мира (включающие важные для авиации метеовеличины, такие как направление и скорость ветра, видимость, явления погоды, количество и форма облачности, нижняя и верхняя граница облачности), а также ознакомиться с разнообразными материалами по авиационной метеорологии и подборкой полезных ссылок на эту тему.

Сайт Метеоцентр.Азия посвящён разработке технологий оптимизации авиаметеорологического обслуживания, включая проектирование и перспективное создание нескольких автоматизированных авиаметеорологических систем:
- система выпуска высокодетальных прогностических карт явлений погоды для нижнего воздушного пространства по России и ближнему зарубежью;
- система верификации прогнозов TAF (выпускаемых синоптиками официальных АМСГ РФ и ближнего зарубежья) и AUTOTAF (выпускаемых сайтом Метеоцентр.Азия) - выявление ошибок, онлайн-сопоставление с фактической погодой METAR, автоматическое внесение коррективов в прогнозы при резком отклонении фактической погоды от прогноза, подсчёт оправдываемости прогнозов по элементам и в целом;
- система обработки, анализа и отображения авиаметеорологической информации для применения провайдерами метеорологической информации.


Погода Верещагино - сегодня

Время (UTC), дата Ветер
(°,м/с) 
Видим.   Явления Облачность Т
(°С)
Тd
(°С)
f(%) Тe
(°С)
Pmin
(гПа)
dP
(гПа)
Po
(мм)
O2
(г/м3)
Тmin Tmax R s Состояние
почвы
12 26.05.17 360 (С) 20000 м    10/10 600 м кучево-дожд. 
[Cb cap]
+6.6 -1.1 58 +8  1010.6  0.8  755  297    +7.2       
15 26.05.17 320 (СЗ) 4000 м  ливневой снег  10/10 600 м кучево-дожд. 
[Cb cap]
+2.4 +1.4 93 +2  1012.3  1.7  756  302           
18 26.05.17 320 (СЗ) н/о  слаб. ливневой снег  10/10 600 м кучево-дожд. 
[Cb cap]
+0.1 -0.5 96 -2  1015  2.7  758  306           
21 26.05.17 320 (СЗ) н/о  {ливн. осадки}  3/3 600 м 
[Sc]
-1.4 -2 96 -2  1016.4  1.4  759  308           
00 27.05.17 тихо ()   20000 м  {ливн. осадки}  3/1 1000 м средняя 
[Sc|Ac trans]
-0.9 -3.4 83 -1  1018.4  761  308  -2.2    15  неравномерный
мокрый или
старый снег
100% 
03 27.05.17 230 (ЮЗ) 20000 м    3/3 600 м 
[Cu med, cong]
+2 -3.7 66 +1  1019.4  762  305           
06 27.05.17 230 (ЮЗ) 20000 м    4/3 600 м верхняя 
[Cu med, cong|Ci fib]
+4.3 -4.7 52 +3  1019.2  -0.2  762  303           
09 27.05.17 140 (ЮВ) 20000 м    9/0 средняя 
[As trans]
+5.8 -4.8 46 +5  1017.2  -2  760  300           
12 27.05.17 110 (В) 20000 м    10/5 1000 м средняя 
[Sc|Ac As]
+4.2 -1 69 +4  1016.6  -0.6  760  302    +6.6       
15 27.05.17 140 (ЮВ) 20000 м  в посл. час дождь  10/6 600 м средняя 
[Sc|Ac As]
+3.2 +0.3 81 +3  1015.2  -1.4  759  302           
18 27.05.17 140 (ЮВ) н/о  {дождь}  10/3 600 м средняя 
[Sc|Ac As]
+3.2 +0.6 83 +2  1014.8  -0.4  758  302           
21 27.05.17 110 (В) 20000 м    10/10 600 м 
[Sc]
+3.1 +1 86 +3  1014.5  -0.3  758  302           
00 28.05.17 110 (В) 20000 м    10/10 600 м 
[Sc]
+4 +1.4 83 +4  1014.5  758  301  +2.8    0.0  11  мокрый или
старый снег
10-40% 
03 28.05.17 160 (Ю) 20000 м    10/10 1000 м 
[Sc]
+5.6 +1.3 74 +5  1014.9  0.4  758  299           
06 28.05.17 160 (Ю) 20000 м    8/8 600 м 
[Cu Sc]
+9.9 +3.4 64 +10  1013.3  -1.5  757  294           
09 28.05.17 160 (Ю) 20000 м    10/0 средняя, верхняя 
[Ac trans|Cs]
+11.8 +5.1 63 +13  1012.2  -1  756  291           
12 28.05.17 140 (ЮВ) 20000 м    9/0 средняя, верхняя 
[Ac trans|Cs]
+12.3 +4.1 57 +13  1010.7  -1.5  755  291    +13       
15 28.05.17 180 (Ю) 20000 м    9/8 1000 м средняя, верхняя 
[Sc|Ac trans|Ci fib]
+10.8 +4.3 64 +12  1009.3  -1.5  754  292           
18 28.05.17 160 (Ю) н/о    10/8 1000 м верхняя 
[Sc|Ci fib]
+9.4 +4.6 72 +10  1007.2  -2.1  753  292           
21 28.05.17 090 (В) 20000 м    8/6 1000 м верхняя 
[Sc|Ci fib]
+9.7 +5.3 74 +11  1006.6  -0.6  752  292           
00 29.05.17 140 (ЮВ) 20000 м    9/0 верхняя 
[Cc]
+12.1 +6.2 67 +13  1004.2  -2.3  750  289  +9      мокрый или
старый снег
10-40% 
03 29.05.17 110 (В) 20000 м    9/0 верхняя 
[Cc]
+16.2 +7.1 55 +17  1002.3  -1.9  749  284           
06 29.05.17 110 (В) 20000 м    8/0 средняя, верхняя 
[Ac trans|Ci fib]
+19 +8.1 49 +20  1000.9  -1.3  748  280           
09 29.05.17 140 (ЮВ) 20000 м    8/0 средняя, верхняя 
[Ac trans|Cc]
+21.7 +9.9 47 +23  999.7  -1.2  747  277           
12 29.05.17 140 (ЮВ) 20000 м    10/0 средняя, верхняя 
[Ac trans|Cs]
+19.3 +10 55 +21  1000  0.3  747  279    +22.4       
Время (UTC), дата Ветер
(°,м/с) 
Видим.   Явления Облачность Т
(°С)
Тd
(°С)
f(%) Тe
(°С)
Pmin
(гПа)
dP
(гПа)
Po
(мм)
O2
(г/м3)
Тmin Tmax R s Состояние
почвы

Для получения пояснительной информации подведите курсор к названию столбца.

ПОГОДА Верещагино - архив

Всё, что Вы хотите узнать о погоде Верещагино - удобно и подробно!

Выберите нужную дату (начиная с 1 января 2015* года) и нажмите кнопку "Найти".
Будут отображены архивные сводки погоды по пункту Верещагино, начиная с указанной даты.


Отображать данные в формате CSV (для использования в таблицах Excel)


Внимание! Наш архив погоды предназначен исключительно для личного некоммерческого использования в познавательных целях. Если Вам необходимы официальные справки о состоянии погоды (для производственных, юридических, коммерческих и т.п. целей), обращайтесь в органы Росгидромета.

*Примечание: данная дата относится к архиву по метеостанциям СССР (Россия, СНГ, Балтия).
Архив по метеостанциям Зарубежной Европы и Азии (кроме Китая) хранится 10 дней, по другим регионам земного шара (Китай, Африка, Америка, Австралия, Океания) - 1 день.

Верещагино - район местоположения метеостанции


Название, широта, долгота, высота метеостанции:
Верещагино 64.2°ш. 87.6°д. 26 м над ур. моря [Российская Федерация]

Дополнительная информация

В oтличие oт бoльшинства пoгoдных сайтoв мы публикуем пoдрoбную метеoинфoрмацию в детальнoм прoфессиoнальнoм фoрмате.

Характеристики температуры и влажнoсти вoздуха измеряются на высoте 2 м в тени вдали oт зданий и деревьев.
Скoрoсть ветра измеряется на высoте 10 м (на урoвне рoста челoвека скoрoсть ветра ниже в 1.5-2 раза). Если метеoстанция нахoдится в гoрoде или в лесу, тo скoрoсть ветра занижена на 2-4 м/с пo сравнению с oткрытым местoм. Скoрoсть ветра над акватoриями крупных рек и oзёр, а также на вершинах хoлмoв на 2-5 м/с выше, чем в oбычных услoвиях.
Атмoсфернoе давление в разных тoчках местнoсти мoжет значительнo oтличаться oт давления на метеoстанции, в зависимoсти oт услoвий рельефа (при пoдъёме на 10 м давление пoнижается примернo на 1 мм рт.ст.).